Left ArrowRight Arrow

Hourly Observations for May 22, 2024

Temp ( °F °C ) Dew Point ( °F °C ) Humidity (%) Winds ( mph kmh ) Pressure ( in mb ) Visibility ( mi km ) Precip ( " mm )
12:56 am 00:56 undefined 46 7.8 38 3.3 73 73 WNW 10 17 29.85 1011 N/A 0.00 0.00
1:56 am 01:56 undefined 43 6.1 38 3.3 82 82 W 12 19 29.85 1011 N/A 0.00 0.00
2:56 am 02:56 undefined 44 6.7 39 3.9 82 82 WSW 12 19 29.85 1011 N/A 0.00 0.00
3:56 am 03:56 undefined 43 6.1 38 3.3 82 82 WSW 14 22 29.83 1010 N/A 0.00 0.00
4:56 am 04:56 undefined 40 4.4 36 2.2 86 86 W 9 15 29.81 1010 N/A 0.00 0.00
5:56 am 05:56 undefined 42 5.6 37 2.8 82 82 W 14 22 29.81 1009 N/A 0.00 0.00
6:56 am 06:56 undefined 48 8.9 38 3.3 68 68 WSW 10 17 29.79 1009 N/A 0.00 0.00
7:56 am 07:56 undefined 55 12.8 36 2.2 48 48 WSW 21 33 29.77 1008 N/A 0.00 0.00
8:56 am 08:56 undefined 59 15 37 2.8 44 44 WSW 17 28 29.76 1008 N/A 0.00 0.00
9:56 am 09:56 undefined 64 17.8 36 2.2 35 35 W 13 20 29.75 1007 N/A 0.00 0.00
10:56 am 10:56 undefined 68 20 34 1.1 28 28 WSW 15 24 29.73 1007 N/A 0.00 0.00
11:56 am 11:56 undefined 67 19.4 32 0 27 27 WNW 9 15 29.71 1006 N/A 0.00 0.00
12:56 pm 12:56 undefined 68 20 32 0 26 26 VRB 7 11 29.70 1006 N/A 0.00 0.00
1:56 pm 13:56 undefined 68 20 30 -1.1 24 24 SSW 8 13 29.69 1005 N/A 0.00 0.00
2:56 pm 14:56 undefined 70 21.1 30 -1.1 23 23 S 8 13 29.67 1005 N/A 0.00 0.00
3:56 pm 15:56 undefined 69 20.6 30 -1.1 23 23 S 12 19 29.67 1005 N/A 0.00 0.00
4:56 pm 16:56 undefined 69 20.6 31 -0.6 24 24 NW 5 7 29.65 1004 N/A 0.00 0.00
5:56 pm 17:56 undefined 68 20 35 1.7 30 30 SE 12 19 29.65 1004 N/A 0.00 0.00
6:56 pm 18:56 undefined 66 18.9 36 2.2 33 33 SSW 14 22 29.65 1004 N/A 0.00 0.00
7:56 pm 19:56 undefined 64 17.8 36 2.2 35 35 SSE 8 13 29.63 1004 N/A 0.00 0.00
8:56 pm 20:56 undefined 63 17.2 38 3.3 39 39 S 13 20 29.65 1004 N/A 0.00 0.00
9:56 pm 21:56 undefined 61 16.1 39 3.9 44 44 ENE 6 9 29.62 1003 N/A 0.00 0.00
10:56 pm 22:56 undefined 55 12.8 41 5 59 59 E 10 17 29.62 1003 N/A 0.00 0.00
11:56 pm 23:56 undefined 53 11.7 41 5 63 63 E 12 19 29.62 1003 N/A 0.00 0.00

Powered by Vaisala Xweather